Dewpoint
34 33 33 33 33 34 33 34 33 33 33 33 32 33 32 33 33 34 33 33 33 33 32 32 31 31 32 30 29 26 25 27 26 26 27 27 25 27 29 28 27 22
32 32 32 32 33 33 32 33 34 33 33 33 33 33 33 34 34 34 34 33 33 33 33 32 32 31 31 29 30 27 25 25 26 29 27 28 25 26 28 29 27 25
31 32 32 32 32 33 33 33 33 33 32 33 33 33 34 34 35 34 33 33 32 32 32 32 31 31 31 30 29 28 25 25 25 27 25 27 25 23 24 26 25 27
29 30 30 31 32 31 32 32 32 32 32 32 32 34 33 37 34 34 34 32 32 32 32 32 32 31 30 30 30 27 26 25 24 25 25 23 25 23 23 23 24 24
28 29 29 30 30 31 31 31 31 31 31 31 32 33 32 33 33 33 33 33 32 32 31 31 31 30 30 29 29 27 26 25 25 25 24 22 23 24 23 22 22 22
26 27 27 28 29 29 29 29 29 29 30 30 31 30 31 32 32 32 32 32 31 31 31 31 30 29 29 29 28 27 26 25 24 25 23 20 20 23 23 22 20 17
25 26 25 25 26 27 26 27 27 28 28 29 29 29 30 30 30 31 31 31 31 30 30 30 30 29 28 28 27 26 25 23 22 22 20 19 19 19 21 20 18 16
24 24 25 25 25 24 23 24 23 25 27 27 27 27 28 29 29 30 30 30 30 30 30 29 29 29 28 27 26 25 24 25 23 20 19 18 18 16 17 17 16 15
23 23 23 23 23 23 22 22 23 23 24 25 25 25 26 27 28 28 29 29 30 30 29 29 28 27 27 26 25 24 23 22 23 20 19 18 17 16 15 15 15 14
22 22 21 22 22 23 23 23 23 23 24 24 24 25 25 25 26 27 27 27 28 28 28 28 27 27 26 25 25 23 22 21 20 19 19 18 17 16 15 15 14 14
20 21 21 21 22 23 23 23 23 23 23 23 23 23 24 24 24 25 25 26 27 26 27 26 26 26 25 24 23 23 22 21 20 19 18 18 18 17 19 16 16 15
20 20 21 21 22 22 23 23 23 24 24 23 23 23 23 23 23 22 23 24 24 25 25 25 25 24 24 23 23 22 21 21 20 19 18 17 17 17 16 17 16 16
20 20 21 21 21 22 23 24 24 25 24 24 24 24 23 23 23 23 23 23 23 24 24 24 25 25 24 24 22 22 21 20 20 20 18 17 17 16 16 16 16 16
20 21 21 22 23 23 24 24 25 25 25 25 26 25 25 24 25 24 24 24 23 23 23 24 24 24 24 24 23 23 22 21 21 21 19 17 17 16 15 15 16 16
20 21 22 21 22 23 24 25 26 26 26 26 26 26 27 25 25 25 24 24 24 24 23 23 23 24 24 23 23 23 22 22 22 22 21 19 17 16 15 15 15 15
19 20 20 21 22 22 23 25 26 27 27 27 27 27 26 26 25 25 24 24 24 23 23 24 24 26 27 29 29 25 23 24 24 25 24 20 18 17 16 15 14 14
18 19 20 21 21 22 26 27 27 28 28 27 28 28 27 26 26 25 24 24 24 23 23 23 24 26 28 30 31 32 27 24 26 26 25 23 20 19 18 16 15 14
19 20 22 22 23 25 26 28 29 29 28 28 27 27 27 27 26 25 25 24 24 24 23 23 23 27 29 30 31 31 31 27 27 27 26 24 22 20 18 17 16 14
18 21 23 23 23 23 25 28 29 29 29 28 28 27 27 27 25 25 25 25 25 24 24 24 24 27 29 30 31 31 32 31 27 27 26 26 24 22 20 18 17 16
19 23 22 21 20 22 24 27 28 28 27 26 27 27 27 26 26 26 26 25 25 25 24 24 24 27 28 29 30 31 32 32 29 28 27 26 24 22 21 19 18 17
19 20 20 20 19 20 23 27 28 28 27 26 25 25 25 25 24 25 27 27 27 27 26 25 24 27 28 28 29 30 31 31 30 29 28 27 25 23 21 20 19 18
18 19 18 18 17 19 21 25 28 27 25 24 23 23 24 24 25 26 27 27 27 28 26 26 25 28 28 29 29 29 29 29 30 29 29 28 28 24 22 19 18 17
17 16 16 17 17 17 20 24 26 25 22 21 22 22 23 22 24 25 25 26 26 27 26 26 26 27 28 28 29 29 29 28 29 29 29 29 28 26 23 20 18 15
17 17 16 17 16 17 19 22 23 21 19 18 18 19 20 22 22 22 23 25 26 26 26 26 26 26 27 28 28 29 28 28 27 27 28 29 28 26 24 23 19 22
16 16 15 15 15 16 18 21 20 17 16 16 15 16 17 18 20 21 22 23 25 25 26 25 26 27 27 28 28 28 28 28 27 27 27 28 27 26 25 23 19 21
16 16 16 15 15 16 18 18 16 13 14 13 13 13 13 14 16 19 22 22 23 24 25 24 24 25 26 27 27 28 28 28 26 25 26 27 28 26 24 23 20 20